CAPE
50 184 158 170 287 13 32 116 149 27 47 51 153 67 140 307 487 468 478 473 551 573 643 591 563 348 124 370 664 752 853 1001 1038 1135 1080 1064 973 845 940 1134 1301 1421 1272 1379 1410 1543 1575 1868 1993 1829 1929 1999 2052 2064 2131 2002 1887 1552 1378 1134 1172 1133 1149 1113 998 1064 1213 940 851 876 852 870 843 774 674 829 916 990 801 1030 1256 1375 1416 1410 1122 853
19 101 201 398 159 111 20 130 179 112 74 109 95 136 46 134 62 42 217 262 411 215 548 342 426 491 778 724 724 756 848 830 898 931 989 1164 1200 1115 1132 1086 1224 1458 1493 1434 1425 1383 1410 1506 1935 2033 1886 1928 1905 1887 1976 2028 1905 1674 1328 1277 1185 1219 1299 1344 1337 1291 1217 1156 1218 1128 896 969 701 655 544 554 532 667 932 1231 1275 1386 1572 1445 1436 1179
48 247 11 41 88 93 87 103 112 52 20 154 130 429 334 263 409 200 334 68 68 298 443 26 18 652 703 703 733 825 853 894 869 907 924 950 1018 1229 1243 1164 1473 1566 1429 1403 1374 1446 1287 1385 1477 1728 1741 1743 1843 1889 1922 1880 1766 1691 1765 1756 1538 1453 1519 1587 1490 1315 1068 1316 1261 1563 1444 1334 1194 932 744 829 821 1059 1234 1006 995 879 1193 1398 1404 1274
59 1 0 2 68 101 104 131 173 102 64 32 127 377 60 154 281 388 163 213 45 181 378 84 234 284 524 609 672 733 752 751 732 791 899 1016 1081 1165 1102 1028 1075 1140 1211 1452 1680 1651 1543 1660 1618 1586 1651 1899 1893 1771 1887 1938 1888 1976 1994 2158 2077 1986 1953 1962 1846 1754 1778 1691 1708 1852 1920 2056 2038 1871 1871 1546 946 792 660 759 675 886 511 535 276 556
0 0 0 11 61 115 182 56 216 141 219 190 137 24 79 37 23 85 421 287 165 184 226 9 461 221 189 178 126 59 41 323 339 699 784 865 898 943 1104 1285 1359 1273 1198 1121 1407 1706 1728 1754 1853 1905 1877 1813 1792 1880 1994 2071 2035 2026 2095 2282 2288 2238 2320 1780 2174 2328 2190 2146 2100 2096 2005 1910 1558 1702 1484 1750 1796 1652 1194 1202 973 1079 898 821 1007 1057
0 0 0 13 67 129 189 158 174 19 218 148 73 62 75 139 16 160 145 149 111 154 195 186 102 433 116 64 85 75 122 690 706 880 827 817 790 850 956 1019 1019 1154 1416 1412 1417 1424 1560 1716 1775 1837 1819 1767 1693 1829 1978 2031 2183 2248 2256 2332 2277 2278 2260 2220 2356 2220 2161 2084 2074 1992 1770 1614 1636 1346 1439 908 543 443 757 389 1265 1646 654 659 681 671
0 0 4 35 68 160 141 38 110 57 190 353 280 76 80 86 50 151 53 104 180 153 106 4 95 48 390 243 71 64 48 588 734 825 907 1043 904 844 865 894 936 886 927 1075 1295 1465 1629 1707 1779 1892 1923 1828 1893 2097 2160 2297 2315 2380 2304 2244 2204 2116 2022 1964 1987 1814 1634 1752 1610 1506 1463 1366 1189 1114 1017 1055 894 775 901 788 913 739 1154 954 710 775
0 0 2 45 44 163 166 86 41 33 34 376 88 227 54 55 48 28 82 179 22 121 173 90 255 579 316 582 57 38 629 701 748 812 995 985 957 882 892 978 1047 877 872 879 1091 1382 1699 1895 1929 1957 2175 2167 2146 2229 2284 2320 2298 2283 2101 1848 1648 1464 1471 1448 1424 1300 1121 1177 1145 930 652 339 323 372 284 94 85 129 88 38 64 100 319 562 678 574
0 0 1 35 18 74 166 90 71 98 288 137 128 178 61 64 62 73 304 79 161 391 402 350 45 497 546 388 286 64 667 754 778 865 987 996 984 909 798 891 1021 954 889 973 1071 1382 1655 1870 2013 1938 1901 1949 1965 1848 1802 1692 1759 1434 880 929 885 791 751 711 661 521 451 435 278 272 153 141 48 25 10 2 1 1 3 0 23 19 4 11 48 5
0 0 0 0 5 14 17 52 104 136 163 181 70 138 137 102 86 41 149 49 32 543 388 186 137 497 540 242 531 466 592 773 797 871 816 884 926 947 918 960 932 1018 1122 1048 1111 1351 1541 1452 1394 1198 826 862 1003 984 1026 970 872 712 564 604 506 334 248 380 434 404 435 241 114 57 78 8 0 0 0 0 0 0 0 0 0 0 0 0 0 3
0 0 0 0 0 0 45 72 41 97 116 189 111 231 230 52 120 79 108 70 127 287 54 128 68 228 286 631 640 816 392 726 676 894 865 758 834 840 910 854 895 874 799 770 786 726 616 364 354 412 592 734 908 850 668 542 325 136 93 154 153 112 71 120 177 234 148 63 32 18 12 12 4 1 1 1 0 1 1 1 0 0 0 0 0 0
0 0 0 0 0 0 19 34 40 170 174 262 221 246 126 77 252 200 208 73 247 195 193 78 27 86 424 344 593 524 594 659 756 511 533 494 447 745 880 709 688 576 400 266 217 160 199 218 247 378 510 608 563 419 300 102 72 44 15 21 12 3 3 5 55 160 48 25 18 15 21 24 24 13 8 14 18 8 11 11 16 13 4 2 0 0
0 0 0 0 0 0 28 99 144 148 174 220 261 241 419 108 105 258 554 266 301 128 302 138 30 327 596 585 389 567 645 776 736 631 644 506 458 705 602 555 549 311 142 81 324 384 252 250 350 351 366 401 237 180 131 81 49 35 36 26 22 6 10 20 27 25 30 32 28 32 29 29 29 28 24 16 11 15 18 9 16 7 4 0 0 0
0 0 0 0 0 10 42 143 158 212 212 157 147 177 471 244 237 17 212 42 182 177 157 210 35 522 320 360 425 429 732 923 727 678 512 431 382 460 344 340 254 267 205 205 242 199 210 213 201 258 217 149 145 82 55 42 35 19 13 16 17 6 5 6 6 8 6 4 5 6 10 11 8 10 9 4 6 10 15 10 14 13 4 1 0 0
0 0 0 6 46 0 44 24 26 92 186 263 54 37 246 262 146 1 166 43 103 470 240 36 151 186 433 921 445 495 688 773 714 607 472 350 314 309 142 68 144 200 142 52 69 110 160 216 268 278 220 162 80 66 33 18 14 14 18 21 19 8 1 1 1 0 0 0 0 1 3 8 4 3 3 1 2 5 5 2 2 0 0 1 0 0
5 41 0 0 0 0 16 2 50 36 108 165 152 121 128 192 23 148 444 346 548 357 110 110 353 385 833 443 406 401 595 645 643 592 378 221 288 189 83 78 79 79 27 20 56 172 217 402 458 408 176 77 43 42 19 29 24 19 18 24 23 9 3 0 0 0 0 0 0 0 0 0 0 0 0 0 0 1 10 2 1 0 0 0 0 2
0 43 0 0 0 0 0 0 5 7 225 134 85 98 141 44 13 34 386 361 218 39 12 154 181 336 270 361 321 393 484 638 618 488 348 277 182 170 131 60 72 25 3 8 184 432 356 245 354 236 200 54 19 16 21 24 24 30 27 27 11 4 1 0 0 0 0 0 0 0 0 0 0 0 0 0 0 0 0 0 0 0 0 0 4 8
104 78 1 4 0 0 0 0 0 0 14 90 12 34 12 46 121 82 24 68 22 19 190 100 404 222 234 358 416 359 554 573 560 423 334 228 130 172 61 54 65 44 19 40 191 281 264 165 74 77 11 0 1 1 1 2 5 10 8 2 0 0 0 0 0 0 0 0 0 0 0 0 0 0 0 0 0 0 0 0 0 0 0 0 10 11
122 43 16 0 0 0 0 0 0 0 0 28 35 91 38 66 84 160 4 2 14 40 14 96 220 307 69 789 412 389 559 647 545 427 333 205 99 106 66 61 40 40 38 4 7 52 40 38 9 0 0 0 0 0 0 0 0 0 0 0 0 0 0 0 0 0 0 0 0 0 0 0 0 0 0 0 0 0 0 0 0 0 0 3 11 10
179 109 49 0 1 0 0 8 123 19 0 0 0 0 3 30 327 277 42 89 16 24 8 357 52 265 212 683 561 364 606 731 494 436 354 227 101 60 63 25 9 9 2 0 4 7 8 1 0 0 0 0 0 0 0 0 0 0 0 0 0 0 0 0 0 0 0 0 0 0 0 0 0 0 0 0 0 0 0 0 0 0 0 7 7 7
163 382 106 16 0 0 55 1 196 114 48 0 3 22 2 111 139 33 229 47 165 71 8 2 18 335 413 503 474 439 602 604 450 408 319 167 96 34 12 1 0 0 0 0 0 0 0 0 0 0 0 0 0 0 0 0 0 0 0 0 0 0 0 0 0 0 0 0 0 0 0 0 0 0 0 0 0 0 0 0 0 0 0 0 9 14
58 0 4 38 6 21 208 17 4 32 66 36 23 95 80 166 44 2 187 40 48 62 39 0 25 734 434 273 466 513 615 549 420 370 256 138 52 18 2 0 0 0 0 0 0 0 0 0 0 0 0 0 0 0 0 0 0 0 0 0 0 0 0 0 0 0 0 0 0 0 0 0 0 0 0 0 0 0 0 0 0 0 0 1 15 26
1009 99 118 52 177 214 85 1 0 0 0 23 52 35 30 102 57 77 66 260 92 121 12 77 9 747 508 272 509 604 519 484 388 244 149 73 25 0 0 0 0 0 0 0 0 0 0 0 0 0 0 0 0 0 0 0 0 0 0 0 0 0 0 0 0 0 0 0 0 0 0 0 0 0 0 0 0 0 0 0 0 0 0 0 10 10
794 404 188 193 57 31 23 8 4 0 18 1 0 7 9 77 63 130 194 235 37 337 9 101 31 341 379 432 650 643 521 482 288 171 92 32 0 0 0 0 0 0 0 0 0 0 0 0 0 0 0 0 0 0 0 0 0 0 0 0 0 0 0 0 0 0 0 0 0 0 0 0 0 0 0 0 0 0 0 0 0 0 0 0 0 1
190 374 264 190 108 121 131 102 67 22 0 194 224 184 123 99 33 158 71 220 2 122 29 5 0 378 827 343 491 550 476 321 240 113 48 6 0 0 0 0 0 0 0 0 0 0 0 0 0 0 0 0 0 0 0 0 0 0 0 0 0 0 0 0 0 0 0 0 0 0 0 0 0 0 0 0 0 0 0 0 0 0 0 0 0 0
68 179 46 126 72 31 22 36 98 174 100 262 273 56 0 0 104 95 63 70 0 328 40 10 6 619 592 444 469 445 332 264 200 94 23 1 0 0 0 0 0 0 0 0 0 0 0 0 0 0 0 0 0 0 0 0 0 0 0 0 0 0 0 0 0 0 0 0 0 0 0 0 0 0 0 0 0 0 0 0 0 0 0 0 0 0
728 672 506 657 345 56 273 355 285 928 255 41 164 216 10 85 229 253 111 51 46 593 100 80 188 600 306 478 299 264 303 249 195 76 14 0 0 0 0 0 0 0 0 0 0 0 0 0 0 0 0 0 0 0 0 0 0 0 0 0 0 0 0 0 0 0 0 0 0 0 0 0 0 0 0 0 0 0 0 0 0 0 0 0 0 0
408 186 730 910 673 183 250 514 210 694 238 130 92 151 21 53 152 322 27 185 263 0 0 388 760 756 481 364 365 192 223 245 194 75 4 0 0 0 0 0 0 0 0 0 0 0 0 0 0 0 0 0 0 0 0 0 0 0 0 0 0 0 0 0 0 0 0 0 0 0 0 0 0 0 0 0 0 0 0 0 0 0 0 0 0 0
379 124 728 855 462 223 83 84 140 427 529 210 96 84 111 130 180 283 249 224 101 2 23 450 492 363 580 427 388 320 232 275 172 60 12 0 0 0 0 0 0 0 0 0 0 0 0 0 0 0 0 0 0 0 0 0 0 0 0 0 0 0 0 0 0 0 0 0 0 0 0 0 0 0 0 0 0 0 0 0 0 0 0 0 0 0
584 370 505 628 633 428 134 98 46 202 115 66 133 153 170 81 248 214 281 85 4 242 441 222 364 299 420 444 392 346 223 224 117 29 1 0 0 0 0 0 0 0 0 0 0 0 0 0 0 0 0 0 0 0 0 0 0 0 0 0 0 0 0 0 0 0 0 0 0 0 0 0 0 0 0 0 0 0 0 0 0 0 0 0 0 0
679 332 374 606 399 384 188 39 50 167 79 239 80 60 48 89 50 102 224 279 131 83 269 104 218 387 515 374 344 349 250 188 91 12 0 0 0 0 0 0 0 0 0 0 0 0 0 0 0 0 0 0 0 0 0 0 0 0 0 0 0 0 0 0 0 0 0 0 0 0 0 0 0 0 0 0 0 0 0 0 0 0 0 0 0 0
490 412 345 446 121 428 103 123 19 62 77 105 120 61 28 10 210 122 82 351 124 331 321 335 212 297 570 429 361 282 191 134 83 12 0 0 0 0 0 0 0 0 0 0 0 0 0 0 0 0 0 0 0 0 0 0 0 0 0 0 0 0 0 0 0 0 0 0 0 0 0 0 0 0 0 0 0 0 0 0 0 0 0 0 0 0
220 305 173 242 50 170 308 122 241 64 99 84 162 98 69 334 291 127 40 139 417 398 132 6 83 298 502 371 231 241 118 115 62 8 1 0 0 0 0 0 0 0 0 0 0 0 0 0 0 0 0 0 0 0 0 0 0 0 0 0 0 0 0 0 0 0 0 0 0 0 0 0 0 0 0 0 0 0 0 0 0 0 0 0 0 0
500 179 62 204 31 334 302 225 165 138 50 142 745 507 310 397 159 105 254 202 271 165 251 220 331 344 509 394 294 210 93 96 69 24 8 3 0 0 0 0 0 0 0 0 0 0 0 0 0 0 0 0 0 0 0 0 0 0 0 0 0 0 0 0 0 0 0 0 0 0 0 0 0 0 0 0 0 0 0 0 0 0 0 0 0 0
264 183 107 206 16 207 387 157 34 2 87 534 130 250 90 60 6 55 211 27 154 107 57 112 174 415 433 467 477 350 179 55 9 14 2 0 0 0 0 0 0 0 0 0 0 0 0 0 0 0 0 0 0 0 0 0 0 0 0 0 0 0 0 0 0 0 0 0 0 0 0 0 0 0 0 0 0 0 0 0 0 0 0 0 1 0
208 58 73 24 135 146 40 31 1 10 411 53 313 145 55 2 16 192 117 88 71 128 77 163 267 329 323 276 170 114 66 8 0 0 0 0 0 0 0 0 0 0 0 0 0 0 0 0 0 0 0 0 0 0 0 0 0 0 0 0 0 0 0 0 0 0 0 0 0 0 0 0 0 0 0 0 0 0 0 0 0 2 2 2 0 0
317 143 26 41 77 38 1 13 0 154 85 391 118 212 1 119 177 100 0 71 66 162 119 273 267 333 334 274 136 16 0 0 0 0 0 0 0 0 0 0 0 0 0 0 0 0 0 0 0 0 0 0 0 0 0 0 0 0 0 0 0 0 0 0 0 0 0 0 0 0 0 0 0 0 0 0 0 0 0 1 3 7 7 5 4 3
369 170 38 2 0 28 11 2 0 0 0 94 195 659 141 616 401 277 7 1 124 160 162 290 288 183 95 12 0 0 0 1 7 0 0 0 0 0 0 0 0 0 0 0 0 0 0 0 0 0 0 0 0 0 0 0 0 0 0 0 0 0 0 0 0 0 0 0 0 0 0 0 0 0 0 0 0 0 1 5 6 10 10 8 6 4
66 134 328 1 0 0 0 0 0 0 12 217 595 428 361 197 78 84 0 0 399 192 182 215 200 129 28 0 0 0 7 6 10 1 0 0 0 0 0 0 0 0 0 0 0 0 0 0 0 0 0 0 0 0 0 0 0 0 0 0 0 0 0 0 0 0 0 0 0 0 0 0 0 0 0 0 0 3 2 5 7 9 10 4 6 6
92 40 6 0 0 0 0 0 0 0 0 338 548 356 79 195 38 131 0 49 215 256 206 194 174 114 25 7 0 12 66 0 8 2 0 0 0 0 0 0 0 0 0 0 0 0 0 0 0 0 0 0 0 0 0 0 0 0 0 0 0 0 0 0 0 0 0 0 0 0 0 0 0 0 0 0 0 3 5 6 7 10 10 8 3 0
37 3 0 0 0 0 0 0 0 0 279 241 241 120 25 132 296 0 0 47 94 314 219 212 230 95 53 2 17 86 132 10 0 0 0 0 0 0 0 0 0 0 0 0 0 0 0 0 0 0 0 0 0 0 0 0 0 0 0 0 0 0 0 0 0 0 0 0 0 0 0 0 0 0 0 0 2 1 5 0 7 8 3 3 0 1
80 2 0 1 0 0 16 0 0 0 524 287 102 98 47 113 0 0 653 243 305 346 262 244 207 106 32 35 40 67 16 0 0 0 0 0 0 0 0 0 0 0 0 0 0 0 0 0 0 0 0 0 0 0 0 0 0 0 0 0 0 0 0 0 0 0 0 0 0 0 0 0 0 0 0 2 1 0 3 2 6 6 0 4 9 0
1 0 0 0 0 21 49 0 0 0 237 226 208 91 122 173 83 130 103 488 141 406 297 258 212 60 33 62 129 14 0 0 0 0 0 0 0 0 0 0 0 0 0 0 0 0 0 0 0 0 0 0 0 0 0 0 0 0 0 0 0 0 0 0 0 0 0 0 0 0 0 0 0 0 0 2 4 2 3 2 0 6 4 5 5 5
75 0 0 0 0 0 0 0 0 90 269 223 54 37 10 31 202 133 1 13 542 317 310 257 184 64 46 105 2 0 0 0 0 0 0 0 0 0 0 0 0 0 0 0 0 0 0 0 0 0 0 0 0 0 0 0 0 0 0 0 0 0 0 0 0 0 0 0 0 0 0 0 0 1 3 0 0 0 2 1 5 4 5 2 5 4
95 0 240 0 92 0 0 0 1019 262 345 228 351 794 286 267 175 562 464 30 242 303 248 192 155 46 60 38 0 0 0 0 0 0 0 0 0 0 0 0 0 0 0 0 0 0 0 0 0 0 0 0 0 0 0 0 0 0 0 0 0 0 0 0 0 0 0 0 0 0 0 0 0 0 0 0 0 0 0 3 4 4 3 2 1 2
12 20 37 0 3 140 278 242 225 235 280 257 524 215 602 176 7 268 110 17 63 126 226 170 147 30 37 6 0 0 0 0 0 0 0 0 0 0 0 0 0 0 0 0 0 0 0 0 0 0 0 0 0 0 0 0 0 0 0 0 0 0 0 0 0 0 0 0 0 0 0 0 0 0 0 0 0 0 0 2 2 2 0 1 2 1
205 0 0 0 180 0 0 442 168 240 370 334 460 95 50 224 121 58 373 150 97 217 133 229 86 20 6 0 0 0 0 0 0 0 0 0 0 0 0 0 0 0 0 0 0 0 0 0 0 0 0 0 0 0 0 0 0 0 0 0 0 0 0 0 0 0 0 0 0 0 0 1 0 0 0 0 0 0 0 0 1 2 1 0 1 0
192 3 0 0 97 0 20 694 615 493 407 362 327 282 47 1 37 20 229 354 276 158 159 157 43 7 0 0 0 0 0 0 0 0 0 0 0 0 0 0 0 0 0 0 0 0 0 0 0 0 0 0 0 0 0 0 0 0 0 0 0 0 0 0 0 0 0 0 0 0 0 0 0 1 2 3 2 2 1 0 1 1 0 2 0 0
214 0 0 8 7 0 39 152 99 66 70 11 23 252 200 86 16 2 0 62 142 70 70 17 7 0 0 0 0 0 0 0 0 0 0 0 0 0 0 0 0 0 0 0 0 0 0 0 0 0 0 0 0 0 0 0 0 0 0 0 0 0 0 0 0 0 0 0 0 0 0 0 0 0 1 2 2 3 1 2 2 1 2 2 0 0
0 0 103 21 0 0 0 202 256 10 0 108 150 126 194 211 66 5 0 12 38 26 1 0 0 0 0 0 0 0 0 0 0 0 0 0 0 0 0 0 0 0 0 0 0 0 0 0 0 0 0 0 0 0 0 0 0 0 0 0 0 0 0 0 0 0 0 0 0 0 0 0 0 0 0 0 0 3 0 0 0 0 0 0 0 0
0 0 2 0 0 0 25 313 625 84 25 636 659 394 243 64 16 1 0 22 22 8 0 0 0 0 0 0 0 0 0 0 0 0 0 0 0 0 0 0 0 0 0 0 0 0 0 0 0 0 0 0 0 0 0 0 0 0 0 0 0 0 0 0 0 0 0 0 0 0 0 0 0 0 0 0 0 0 0 3 0 0 0 0 0 0
Wind_Speed
nan 8 10 14 7 nan nan 5 10 nan nan nan 12 nan 6 6 6 8 10 13 11 7 7 10 8 9 9 8 6 6 6 5 5 6 8 9 10 10 10 10 10 10 10 12 12 12 12 12 12 11 10 9 7 7 7 7 6 6 6 5 4 5 5 5 5 5 5 5 5 5 5 5 6 6 6 7 8 8 8 8 8 9 11 12 12 13
nan 12 13 17 7 9 nan 6 7 10 nan 8 nan 10 nan 13 nan nan 14 16 15 10 10 10 8 6 8 8 7 8 6 4 5 4 5 6 7 8 7 8 9 10 11 11 12 13 14 13 13 13 11 10 9 8 8 8 8 6 5 5 5 5 6 5 5 6 6 6 6 7 7 7 7 7 7 7 8 8 9 9 9 10 12 12 13 15
nan 11 nan nan nan nan nan 7 9 nan nan 12 9 9 9 8 9 11 14 nan nan 11 12 nan nan 7 8 7 6 5 5 6 5 6 5 5 6 7 7 6 7 8 9 10 10 11 11 11 11 11 10 9 9 9 7 8 7 5 5 5 6 5 6 5 4 6 6 8 8 9 10 10 11 11 10 10 9 10 11 10 10 11 12 13 14 14
nan nan nan nan nan 10 10 7 10 12 nan nan 13 11 nan 12 13 13 13 16 nan 14 12 nan 9 11 10 8 6 6 5 6 5 5 5 6 5 7 7 7 7 7 8 8 10 10 10 9 9 9 8 9 9 8 6 6 5 6 6 6 6 6 6 7 7 8 8 9 10 11 12 12 13 11 12 12 12 10 8 9 9 9 9 10 12 12
nan nan nan nan nan 10 11 nan 9 7 10 9 5 nan nan nan nan nan 14 13 12 15 15 nan 13 14 13 11 9 nan nan 5 5 5 6 6 5 6 6 6 7 8 9 9 9 10 10 9 8 7 8 8 7 6 6 6 6 8 7 7 7 7 7 6 7 6 8 9 9 9 11 11 11 13 11 11 12 12 12 13 12 11 10 10 13 14
nan nan nan nan nan 10 9 8 12 nan 14 10 nan nan nan 10 nan 12 16 14 16 17 19 16 16 13 13 nan nan nan 9 6 6 6 5 5 5 6 6 6 7 7 8 9 10 10 10 9 8 7 7 7 7 7 7 7 7 7 7 6 6 7 6 6 5 4 7 7 7 7 8 9 10 10 11 9 9 9 11 11 13 15 16 12 13 13
nan nan nan nan nan 10 11 nan 10 nan 9 11 10 nan nan nan nan 21 nan 21 14 11 13 nan nan nan 16 12 nan nan nan 8 8 6 5 5 6 6 6 7 7 7 8 8 9 9 9 8 7 6 7 7 7 7 7 7 6 5 5 5 5 5 5 5 5 4 6 8 8 8 9 10 11 11 12 12 12 12 12 14 14 15 18 17 17 18
nan nan nan nan nan 10 9 nan nan nan nan 6 nan 15 nan nan nan nan nan 11 nan 10 13 nan 14 15 19 15 nan nan 12 11 9 6 5 5 4 4 6 5 6 6 7 7 7 7 7 6 6 5 5 6 5 6 5 6 5 3 3 3 4 5 5 5 6 8 9 10 11 11 12 13 13 13 13 nan nan 14 nan nan nan 16 17 17 17 19
nan nan nan nan nan nan 7 nan nan nan 8 10 13 14 nan nan nan nan 14 nan 10 15 9 12 nan 13 13 17 16 nan 13 11 8 7 7 6 5 4 3 4 4 4 3 4 5 5 5 4 4 4 4 4 4 4 4 5 5 6 5 5 6 7 7 7 8 10 10 12 13 14 14 15 nan nan nan nan nan nan nan nan nan nan nan nan nan nan
nan nan nan nan nan nan nan nan 11 10 5 9 nan 10 12 11 nan nan 11 nan nan 14 7 7 11 6 11 16 17 13 10 10 9 8 7 7 6 4 3 3 3 4 4 4 4 4 4 4 4 4 4 4 4 5 6 7 7 8 8 8 8 8 8 8 9 11 12 13 14 nan nan nan nan nan nan nan nan nan nan nan nan nan nan nan nan nan
nan nan nan nan nan nan nan nan nan nan 6 12 11 11 11 nan 10 nan 9 nan 13 10 nan 7 nan 12 8 11 10 12 8 8 10 9 8 8 8 6 4 3 4 3 3 4 4 4 5 5 5 5 6 6 6 7 7 8 8 9 nan 9 10 9 nan 11 12 12 13 nan nan nan nan nan nan nan nan nan nan nan nan nan nan nan nan nan nan nan
nan nan nan nan nan nan nan nan nan 6 14 14 9 7 9 nan 9 11 13 nan 11 6 7 nan nan nan 8 12 13 12 13 10 8 9 8 7 7 7 5 5 5 5 4 4 5 5 4 5 5 6 7 7 8 8 9 9 nan nan nan nan nan nan nan nan nan 14 nan nan nan nan nan nan nan nan nan nan nan nan nan nan nan nan nan nan nan nan
nan nan nan nan nan nan nan nan 2 7 12 11 8 7 9 7 9 9 12 9 5 3 8 7 nan 10 3 5 10 13 13 11 8 7 8 9 9 9 8 7 7 7 6 nan 5 4 5 5 6 6 7 8 8 9 9 nan nan nan nan nan nan nan nan nan nan nan nan nan nan nan nan nan nan nan nan nan nan nan nan nan nan nan nan nan nan nan
nan nan nan nan nan nan nan 3 2 6 9 10 10 8 10 5 6 nan 3 nan 8 11 8 6 nan 5 9 8 8 12 12 11 10 10 8 9 9 9 10 9 8 8 6 5 5 5 5 5 6 7 8 8 8 nan nan nan nan nan nan nan nan nan nan nan nan nan nan nan nan nan nan nan nan nan nan nan nan nan nan nan nan nan nan nan nan nan
nan nan nan nan nan nan nan nan nan nan 10 10 nan nan 9 4 2 nan 4 nan 0 3 9 nan 9 9 13 9 10 11 13 12 12 12 11 11 11 11 10 nan 9 9 8 nan nan 5 6 6 6 7 7 7 nan nan nan nan nan nan nan nan nan nan nan nan nan nan nan nan nan nan nan nan nan nan nan nan nan nan nan nan nan nan nan nan nan nan
nan nan nan nan nan nan nan nan nan nan 8 9 5 4 8 4 nan 7 4 5 1 4 7 10 6 4 5 11 10 11 13 12 14 14 14 12 12 11 nan nan nan nan nan nan nan 7 7 6 6 6 6 nan nan nan nan nan nan nan nan nan nan nan nan nan nan nan nan nan nan nan nan nan nan nan nan nan nan nan nan nan nan nan nan nan nan nan
nan nan nan nan nan nan nan nan nan nan 4 7 nan nan 2 nan nan nan 3 3 2 nan nan 6 8 9 11 11 11 12 13 13 15 15 14 14 13 11 10 nan nan nan nan nan 7 6 6 5 5 5 5 nan nan nan nan nan nan nan nan nan nan nan nan nan nan nan nan nan nan nan nan nan nan nan nan nan nan nan nan nan nan nan nan nan nan nan
6 nan nan nan nan nan nan nan nan nan nan nan nan nan nan nan 6 nan nan nan nan nan 3 7 8 10 12 8 11 13 13 15 16 15 14 14 14 13 nan nan nan nan nan nan 8 7 6 5 nan nan nan nan nan nan nan nan nan nan nan nan nan nan nan nan nan nan nan nan nan nan nan nan nan nan nan nan nan nan nan nan nan nan nan nan nan nan
6 nan nan nan nan nan nan nan nan nan nan nan nan nan nan nan nan 4 nan nan nan nan nan nan 6 6 nan 11 12 14 15 17 17 14 14 14 nan 12 nan nan nan nan nan nan nan nan nan nan nan nan nan nan nan nan nan nan nan nan nan nan nan nan nan nan nan nan nan nan nan nan nan nan nan nan nan nan nan nan nan nan nan nan nan nan nan nan
5 6 nan nan nan nan nan nan 4 nan nan nan nan nan nan nan 3 3 nan nan nan nan nan 6 nan 5 9 11 17 16 16 18 18 14 13 13 13 nan nan nan nan nan nan nan nan nan nan nan nan nan nan nan nan nan nan nan nan nan nan nan nan nan nan nan nan nan nan nan nan nan nan nan nan nan nan nan nan nan nan nan nan nan nan nan nan nan
5 9 6 nan nan nan nan nan 5 7 nan nan nan nan nan 2 4 nan 1 nan 4 nan nan nan nan 8 11 12 17 17 17 19 18 15 13 13 nan nan nan nan nan nan nan nan nan nan nan nan nan nan nan nan nan nan nan nan nan nan nan nan nan nan nan nan nan nan nan nan nan nan nan nan nan nan nan nan nan nan nan nan nan nan nan nan nan nan
nan nan nan nan nan nan 11 nan nan nan nan nan nan nan nan 5 nan nan 1 nan nan nan nan nan nan 12 12 8 13 17 17 18 18 17 15 15 nan nan nan nan nan nan nan nan nan nan nan nan nan nan nan nan nan nan nan nan nan nan nan nan nan nan nan nan nan nan nan nan nan nan nan nan nan nan nan nan nan nan nan nan nan nan nan nan nan nan
12 nan 6 nan 7 10 nan nan nan nan nan nan nan nan nan 1 nan nan nan 5 nan 1 nan nan nan 11 11 11 11 17 17 17 18 18 17 nan nan nan nan nan nan nan nan nan nan nan nan nan nan nan nan nan nan nan nan nan nan nan nan nan nan nan nan nan nan nan nan nan nan nan nan nan nan nan nan nan nan nan nan nan nan nan nan nan nan nan
8 5 7 10 nan nan nan nan nan nan nan nan nan nan nan nan nan 7 7 6 nan 5 nan 4 nan 11 11 11 12 16 16 17 18 19 nan nan nan nan nan nan nan nan nan nan nan nan nan nan nan nan nan nan nan nan nan nan nan nan nan nan nan nan nan nan nan nan nan nan nan nan nan nan nan nan nan nan nan nan nan nan nan nan nan nan nan nan
7 10 8 8 7 8 8 8 nan nan nan 4 4 4 4 nan nan 6 nan 4 nan 1 nan nan nan 10 14 12 13 16 17 19 20 19 nan nan nan nan nan nan nan nan nan nan nan nan nan nan nan nan nan nan nan nan nan nan nan nan nan nan nan nan nan nan nan nan nan nan nan nan nan nan nan nan nan nan nan nan nan nan nan nan nan nan nan nan
nan 11 nan 6 nan nan nan nan nan 7 nan 7 5 nan nan nan 1 nan nan nan nan 7 nan nan nan 14 15 14 17 18 17 19 20 nan nan nan nan nan nan nan nan nan nan nan nan nan nan nan nan nan nan nan nan nan nan nan nan nan nan nan nan nan nan nan nan nan nan nan nan nan nan nan nan nan nan nan nan nan nan nan nan nan nan nan nan nan
12 10 8 11 12 nan 14 16 14 8 9 nan 8 4 nan nan 3 2 6 nan nan 9 3 nan 7 16 16 17 17 18 17 19 21 nan nan nan nan nan nan nan nan nan nan nan nan nan nan nan nan nan nan nan nan nan nan nan nan nan nan nan nan nan nan nan nan nan nan nan nan nan nan nan nan nan nan nan nan nan nan nan nan nan nan nan nan nan
9 6 10 11 13 14 13 14 12 10 4 6 nan 7 nan nan 3 1 nan 7 11 nan nan 12 15 14 15 18 18 19 18 19 19 nan nan nan nan nan nan nan nan nan nan nan nan nan nan nan nan nan nan nan nan nan nan nan nan nan nan nan nan nan nan nan nan nan nan nan nan nan nan nan nan nan nan nan nan nan nan nan nan nan nan nan nan nan
7 8 13 10 14 15 nan nan 10 9 10 7 nan nan 8 7 4 2 2 5 3 nan nan 12 8 7 14 18 19 19 20 20 20 nan nan nan nan nan nan nan nan nan nan nan nan nan nan nan nan nan nan nan nan nan nan nan nan nan nan nan nan nan nan nan nan nan nan nan nan nan nan nan nan nan nan nan nan nan nan nan nan nan nan nan nan nan
8 10 12 10 14 15 13 nan nan 8 9 nan 9 9 9 nan 4 2 4 nan nan 5 10 7 5 4 11 16 18 18 17 18 19 nan nan nan nan nan nan nan nan nan nan nan nan nan nan nan nan nan nan nan nan nan nan nan nan nan nan nan nan nan nan nan nan nan nan nan nan nan nan nan nan nan nan nan nan nan nan nan nan nan nan nan nan nan
8 12 12 11 11 15 14 nan nan 10 nan 11 nan nan nan nan nan 8 9 9 7 nan 6 6 4 7 10 13 16 17 18 18 nan nan nan nan nan nan nan nan nan nan nan nan nan nan nan nan nan nan nan nan nan nan nan nan nan nan nan nan nan nan nan nan nan nan nan nan nan nan nan nan nan nan nan nan nan nan nan nan nan nan nan nan nan nan
8 14 10 11 11 14 15 12 nan nan nan 9 11 nan nan nan 8 10 nan 10 5 8 9 7 5 7 12 14 17 19 19 20 nan nan nan nan nan nan nan nan nan nan nan nan nan nan nan nan nan nan nan nan nan nan nan nan nan nan nan nan nan nan nan nan nan nan nan nan nan nan nan nan nan nan nan nan nan nan nan nan nan nan nan nan nan nan
10 13 11 12 nan 15 17 13 13 nan nan nan 7 nan nan 12 12 13 nan 9 7 9 8 nan nan 12 16 16 18 18 18 17 nan nan nan nan nan nan nan nan nan nan nan nan nan nan nan nan nan nan nan nan nan nan nan nan nan nan nan nan nan nan nan nan nan nan nan nan nan nan nan nan nan nan nan nan nan nan nan nan nan nan nan nan nan nan
10 8 nan 12 nan 16 16 14 13 9 nan 10 18 17 13 12 12 9 9 9 8 5 10 13 11 12 16 17 17 17 nan nan nan nan nan nan nan nan nan nan nan nan nan nan nan nan nan nan nan nan nan nan nan nan nan nan nan nan nan nan nan nan nan nan nan nan nan nan nan nan nan nan nan nan nan nan nan nan nan nan nan nan nan nan nan nan
7 7 11 14 nan 15 16 15 nan nan nan 20 14 15 nan nan nan nan 9 nan 8 6 nan 6 8 8 11 13 14 14 12 nan nan nan nan nan nan nan nan nan nan nan nan nan nan nan nan nan nan nan nan nan nan nan nan nan nan nan nan nan nan nan nan nan nan nan nan nan nan nan nan nan nan nan nan nan nan nan nan nan nan nan nan nan nan nan
8 nan nan nan 15 17 nan nan nan nan 20 nan 16 14 nan nan nan 8 5 nan nan 5 nan 5 7 8 9 10 10 10 nan nan nan nan nan nan nan nan nan nan nan nan nan nan nan nan nan nan nan nan nan nan nan nan nan nan nan nan nan nan nan nan nan nan nan nan nan nan nan nan nan nan nan nan nan nan nan nan nan nan nan nan nan nan nan nan
7 10 nan nan nan nan nan nan nan 19 nan 16 13 10 nan 10 11 nan nan nan nan 6 4 7 8 9 9 10 11 nan nan nan nan nan nan nan nan nan nan nan nan nan nan nan nan nan nan nan nan nan nan nan nan nan nan nan nan nan nan nan nan nan nan nan nan nan nan nan nan nan nan nan nan nan nan nan nan nan nan nan nan nan nan nan nan nan
10 7 nan nan nan nan nan nan nan nan nan nan 12 15 13 12 12 11 nan nan 9 6 5 7 8 10 nan nan nan nan nan nan nan nan nan nan nan nan nan nan nan nan nan nan nan nan nan nan nan nan nan nan nan nan nan nan nan nan nan nan nan nan nan nan nan nan nan nan nan nan nan nan nan nan nan nan nan nan nan nan nan nan nan nan nan nan
nan 11 11 nan nan nan nan nan nan nan nan 18 15 15 15 12 nan nan nan nan 8 9 7 7 9 10 nan nan nan nan nan nan nan nan nan nan nan nan nan nan nan nan nan nan nan nan nan nan nan nan nan nan nan nan nan nan nan nan nan nan nan nan nan nan nan nan nan nan nan nan nan nan nan nan nan nan nan nan nan nan nan nan nan nan nan nan
nan nan nan nan nan nan nan nan nan nan nan 16 16 14 nan 12 nan 6 nan nan 9 5 7 8 9 10 nan nan nan nan nan nan nan nan nan nan nan nan nan nan nan nan nan nan nan nan nan nan nan nan nan nan nan nan nan nan nan nan nan nan nan nan nan nan nan nan nan nan nan nan nan nan nan nan nan nan nan nan nan nan nan nan nan nan nan nan
nan nan nan nan nan nan nan nan nan nan 16 17 16 16 nan 10 8 nan nan nan nan 6 6 6 8 nan nan nan nan nan 8 nan nan nan nan nan nan nan nan nan nan nan nan nan nan nan nan nan nan nan nan nan nan nan nan nan nan nan nan nan nan nan nan nan nan nan nan nan nan nan nan nan nan nan nan nan nan nan nan nan nan nan nan nan nan nan
nan nan nan nan nan nan nan nan nan nan 20 19 16 nan nan 12 nan nan 14 11 8 6 5 6 9 9 nan nan nan nan nan nan nan nan nan nan nan nan nan nan nan nan nan nan nan nan nan nan nan nan nan nan nan nan nan nan nan nan nan nan nan nan nan nan nan nan nan nan nan nan nan nan nan nan nan nan nan nan nan nan nan nan nan nan nan nan
nan nan nan nan nan nan nan nan nan nan 17 18 22 nan 11 10 nan 17 14 13 8 7 8 7 8 nan nan nan 7 nan nan nan nan nan nan nan nan nan nan nan nan nan nan nan nan nan nan nan nan nan nan nan nan nan nan nan nan nan nan nan nan nan nan nan nan nan nan nan nan nan nan nan nan nan nan nan nan nan nan nan nan nan nan nan nan nan
nan nan nan nan nan nan nan nan nan nan 20 18 nan nan nan nan 18 14 nan nan 7 7 7 8 8 nan nan 11 nan nan nan nan nan nan nan nan nan nan nan nan nan nan nan nan nan nan nan nan nan nan nan nan nan nan nan nan nan nan nan nan nan nan nan nan nan nan nan nan nan nan nan nan nan nan nan nan nan nan nan nan nan nan nan nan nan nan
nan nan 21 nan nan nan nan nan 23 19 16 15 12 22 14 17 18 15 13 nan 8 6 6 7 10 nan nan nan nan nan nan nan nan nan nan nan nan nan nan nan nan nan nan nan nan nan nan nan nan nan nan nan nan nan nan nan nan nan nan nan nan nan nan nan nan nan nan nan nan nan nan nan nan nan nan nan nan nan nan nan nan nan nan nan nan nan
nan nan nan nan nan 14 15 17 18 15 14 13 15 19 18 18 nan 14 14 nan nan 8 7 8 12 nan nan nan nan nan nan nan nan nan nan nan nan nan nan nan nan nan nan nan nan nan nan nan nan nan nan nan nan nan nan nan nan nan nan nan nan nan nan nan nan nan nan nan nan nan nan nan nan nan nan nan nan nan nan nan nan nan nan nan nan nan
25 nan nan nan 23 nan nan 17 12 12 13 10 12 nan nan 17 17 nan 15 15 nan 11 10 12 nan nan nan nan nan nan nan nan nan nan nan nan nan nan nan nan nan nan nan nan nan nan nan nan nan nan nan nan nan nan nan nan nan nan nan nan nan nan nan nan nan nan nan nan nan nan nan nan nan nan nan nan nan nan nan nan nan nan nan nan nan nan
25 nan nan nan nan nan nan 22 20 19 16 14 12 13 nan nan nan nan 17 17 16 14 13 15 nan nan nan nan nan nan nan nan nan nan nan nan nan nan nan nan nan nan nan nan nan nan nan nan nan nan nan nan nan nan nan nan nan nan nan nan nan nan nan nan nan nan nan nan nan nan nan nan nan nan nan nan nan nan nan nan nan nan nan nan nan nan
32 nan nan nan nan nan nan 17 nan nan nan nan nan 13 15 nan nan nan nan nan 18 nan nan nan nan nan nan nan nan nan nan nan nan nan nan nan nan nan nan nan nan nan nan nan nan nan nan nan nan nan nan nan nan nan nan nan nan nan nan nan nan nan nan nan nan nan nan nan nan nan nan nan nan nan nan nan nan nan nan nan nan nan nan nan nan nan
nan nan 22 nan nan nan nan 21 23 nan nan 15 13 14 15 19 nan nan nan nan nan nan nan nan nan nan nan nan nan nan nan nan nan nan nan nan nan nan nan nan nan nan nan nan nan nan nan nan nan nan nan nan nan nan nan nan nan nan nan nan nan nan nan nan nan nan nan nan nan nan nan nan nan nan nan nan nan nan nan nan nan nan nan nan nan nan
nan nan nan nan nan nan nan 29 20 nan nan 26 20 18 19 nan nan nan nan nan nan nan nan nan nan nan nan nan nan nan nan nan nan nan nan nan nan nan nan nan nan nan nan nan nan nan nan nan nan nan nan nan nan nan nan nan nan nan nan nan nan nan nan nan nan nan nan nan nan nan nan nan nan nan nan nan nan nan nan nan nan nan nan nan nan nan
Wind_Direction
nan 139 113 84 64 nan nan 49 9 nan nan nan 11 nan 48 31 24 39 50 59 58 22 14 16 2 357 27 48 58 59 54 40 43 46 51 60 67 66 65 65 62 67 64 58 54 56 58 60 65 68 72 71 68 76 78 74 72 74 78 87 91 73 66 63 54 36 30 21 12 6 359 2 353 349 347 347 344 342 339 339 343 339 334 334 329 325
nan 59 44 56 35 46 nan 359 317 303 nan 31 nan 9 nan 33 nan nan 47 54 58 37 19 10 348 19 42 31 37 48 63 79 81 72 62 53 57 66 64 70 76 71 68 65 64 62 61 61 63 71 75 85 87 84 83 81 80 84 91 96 84 69 62 44 46 41 22 17 7 17 6 12 5 0 356 358 349 346 348 350 348 344 343 341 340 336
nan 101 nan nan nan nan nan 343 327 nan nan 32 51 42 38 41 27 31 40 nan nan 28 19 nan nan 62 34 33 37 47 57 66 75 91 93 92 92 78 75 67 65 74 78 77 74 73 72 68 69 72 78 79 81 79 81 83 84 90 86 79 73 58 58 47 38 43 31 26 25 24 21 22 19 11 9 13 3 8 359 356 356 350 343 342 340 342
nan nan nan nan nan 22 12 353 351 357 nan nan 51 44 nan 32 40 41 44 43 nan 37 11 nan 22 45 32 23 20 33 40 42 53 61 71 87 94 99 100 96 86 83 77 79 84 80 74 75 73 72 72 72 71 75 77 84 89 70 68 70 70 57 54 47 37 44 39 34 35 29 29 27 24 23 22 17 7 9 8 352 354 338 332 338 335 336
nan nan nan nan nan 30 8 nan 355 55 47 31 359 nan nan nan nan nan 39 34 24 16 1 nan 28 36 37 24 18 nan nan 52 52 44 42 40 46 60 76 81 91 89 90 83 75 76 76 73 74 74 74 66 66 75 81 82 78 68 74 74 70 57 52 46 51 45 44 34 27 23 25 15 14 8 3 12 4 350 355 345 338 335 337 340 328 322
nan nan nan nan nan 28 359 5 17 nan 51 10 nan nan nan 16 nan 6 1 16 46 33 33 30 42 30 27 nan nan nan 36 43 55 40 32 38 43 55 57 59 55 61 79 81 80 79 79 76 73 79 78 80 80 80 80 79 76 77 71 73 66 52 44 37 35 35 26 13 5 7 0 354 354 349 345 347 343 345 330 336 330 328 325 326 325 319
nan nan nan nan nan 22 357 nan 34 nan 37 30 3 nan nan nan nan 15 nan 36 38 39 27 nan nan nan 24 15 nan nan nan 22 27 38 33 29 44 50 58 60 66 67 61 69 76 81 78 77 73 71 78 77 74 73 68 67 72 74 64 59 49 31 22 18 4 346 355 343 341 332 336 337 336 338 335 338 329 333 325 328 323 322 321 316 319 322
nan nan nan nan nan 40 10 nan nan nan nan 42 nan 2 nan nan nan nan nan 56 nan 20 16 nan 34 19 16 16 nan nan 18 14 10 9 16 23 28 48 49 52 58 58 62 61 72 70 72 75 75 69 65 62 62 62 56 53 49 39 19 5 348 351 343 338 340 327 330 334 329 325 321 326 323 323 325 nan nan 322 nan nan nan 315 311 307 308 307
nan nan nan nan nan nan 46 nan nan nan 17 28 8 2 nan nan nan nan 42 nan 36 46 7 22 nan 27 12 15 22 nan 7 1 357 350 352 355 360 16 54 49 33 44 53 69 59 63 69 66 66 55 47 42 41 36 24 10 2 348 333 326 323 320 322 323 312 318 315 320 321 322 325 325 nan nan nan nan nan nan nan nan nan nan nan nan nan nan
nan nan nan nan nan nan nan nan 354 32 1 359 nan 18 15 16 nan nan 25 nan nan 57 7 23 69 50 5 16 18 19 7 356 351 347 339 336 333 349 29 35 30 17 19 18 18 27 37 34 23 12 355 346 357 353 339 340 343 337 333 322 316 316 325 322 312 315 313 315 323 nan nan nan nan nan nan nan nan nan nan nan nan nan nan nan nan nan
nan nan nan nan nan nan nan nan nan nan 327 351 347 11 11 nan 32 nan 43 nan 51 28 nan 30 nan 92 9 22 22 27 20 12 1 351 345 335 328 328 354 14 16 8 357 2 355 353 351 352 341 335 322 325 334 343 336 338 338 334 nan 324 314 317 nan 319 317 318 319 nan nan nan nan nan nan nan nan nan nan nan nan nan nan nan nan nan nan nan
nan nan nan nan nan nan nan nan nan 332 334 357 9 14 20 nan 35 38 32 nan 55 355 14 nan nan nan 50 360 2 4 10 12 10 344 340 335 319 326 348 353 342 330 341 346 347 341 340 334 326 327 320 323 326 330 335 338 nan nan nan nan nan nan nan nan nan 318 nan nan nan nan nan nan nan nan nan nan nan nan nan nan nan nan nan nan nan nan
nan nan nan nan nan nan nan nan 305 354 355 21 6 15 34 23 39 44 29 29 39 352 348 28 nan 35 288 321 346 2 359 358 8 357 345 338 327 326 331 335 337 335 332 nan 348 352 350 338 333 327 325 329 329 334 332 nan nan nan nan nan nan nan nan nan nan nan nan nan nan nan nan nan nan nan nan nan nan nan nan nan nan nan nan nan nan nan
nan nan nan nan nan nan nan 281 332 10 16 27 9 21 51 16 29 nan 26 nan 38 341 342 14 nan 29 321 329 347 344 349 354 356 352 345 339 329 327 332 338 334 328 324 334 338 332 333 337 331 330 330 328 332 nan nan nan nan nan nan nan nan nan nan nan nan nan nan nan nan nan nan nan nan nan nan nan nan nan nan nan nan nan nan nan nan nan
nan nan nan nan nan nan nan nan nan nan 25 25 nan nan 99 121 353 nan 63 nan 123 312 338 nan 37 342 10 324 333 325 336 355 357 348 341 338 332 332 332 nan 330 325 324 nan nan 320 324 326 324 329 327 327 nan nan nan nan nan nan nan nan nan nan nan nan nan nan nan nan nan nan nan nan nan nan nan nan nan nan nan nan nan nan nan nan nan nan
nan nan nan nan nan nan nan nan nan nan 31 3 28 52 55 86 nan 114 136 111 14 344 8 6 24 360 333 337 334 336 338 351 0 346 344 340 335 336 nan nan nan nan nan nan nan 319 318 321 325 326 325 nan nan nan nan nan nan nan nan nan nan nan nan nan nan nan nan nan nan nan nan nan nan nan nan nan nan nan nan nan nan nan nan nan nan nan
nan nan nan nan nan nan nan nan nan nan 56 324 nan nan 179 nan nan nan 60 194 55 nan nan 358 12 327 329 353 349 352 345 349 359 350 342 336 335 345 348 nan nan nan nan nan 318 319 316 312 312 315 322 nan nan nan nan nan nan nan nan nan nan nan nan nan nan nan nan nan nan nan nan nan nan nan nan nan nan nan nan nan nan nan nan nan nan nan
199 nan nan nan nan nan nan nan nan nan nan nan nan nan nan nan 170 nan nan nan nan nan 325 19 18 348 5 345 348 359 348 352 353 351 339 335 341 349 nan nan nan nan nan nan 306 304 298 301 nan nan nan nan nan nan nan nan nan nan nan nan nan nan nan nan nan nan nan nan nan nan nan nan nan nan nan nan nan nan nan nan nan nan nan nan nan nan
210 nan nan nan nan nan nan nan nan nan nan nan nan nan nan nan nan 351 nan nan nan nan nan nan 20 3 nan 321 343 353 345 343 346 344 345 343 nan 341 nan nan nan nan nan nan nan nan nan nan nan nan nan nan nan nan nan nan nan nan nan nan nan nan nan nan nan nan nan nan nan nan nan nan nan nan nan nan nan nan nan nan nan nan nan nan nan nan
216 218 nan nan nan nan nan nan 262 nan nan nan nan nan nan nan 145 360 nan nan nan nan nan 319 nan 349 353 325 345 340 334 334 335 346 346 340 338 nan nan nan nan nan nan nan nan nan nan nan nan nan nan nan nan nan nan nan nan nan nan nan nan nan nan nan nan nan nan nan nan nan nan nan nan nan nan nan nan nan nan nan nan nan nan nan nan nan
222 205 238 nan nan nan nan nan 203 279 nan nan nan nan nan 45 229 nan 257 nan 133 nan nan nan nan 308 288 302 331 332 329 330 333 336 333 332 nan nan nan nan nan nan nan nan nan nan nan nan nan nan nan nan nan nan nan nan nan nan nan nan nan nan nan nan nan nan nan nan nan nan nan nan nan nan nan nan nan nan nan nan nan nan nan nan nan nan
nan nan nan nan nan nan 228 nan nan nan nan nan nan nan nan 344 nan nan 342 nan nan nan nan nan nan 286 290 306 320 325 323 325 327 323 327 326 nan nan nan nan nan nan nan nan nan nan nan nan nan nan nan nan nan nan nan nan nan nan nan nan nan nan nan nan nan nan nan nan nan nan nan nan nan nan nan nan nan nan nan nan nan nan nan nan nan nan
200 nan 213 nan 241 231 nan nan nan nan nan nan nan nan nan 343 nan nan nan 248 nan 218 nan nan nan 277 283 305 314 318 322 321 318 321 321 nan nan nan nan nan nan nan nan nan nan nan nan nan nan nan nan nan nan nan nan nan nan nan nan nan nan nan nan nan nan nan nan nan nan nan nan nan nan nan nan nan nan nan nan nan nan nan nan nan nan nan
205 207 244 245 nan nan nan nan nan nan nan nan nan nan nan nan nan 165 176 204 nan 251 nan 286 nan 278 298 311 313 316 319 312 311 319 nan nan nan nan nan nan nan nan nan nan nan nan nan nan nan nan nan nan nan nan nan nan nan nan nan nan nan nan nan nan nan nan nan nan nan nan nan nan nan nan nan nan nan nan nan nan nan nan nan nan nan nan
203 221 185 250 255 273 276 274 nan nan nan 210 215 248 169 nan nan 197 nan 194 nan 183 nan nan nan 277 300 316 315 319 317 313 314 318 nan nan nan nan nan nan nan nan nan nan nan nan nan nan nan nan nan nan nan nan nan nan nan nan nan nan nan nan nan nan nan nan nan nan nan nan nan nan nan nan nan nan nan nan nan nan nan nan nan nan nan nan
nan 217 nan 217 nan nan nan nan nan 295 nan 261 243 nan nan nan 291 nan nan nan nan 258 nan nan nan 281 292 314 323 325 321 312 311 nan nan nan nan nan nan nan nan nan nan nan nan nan nan nan nan nan nan nan nan nan nan nan nan nan nan nan nan nan nan nan nan nan nan nan nan nan nan nan nan nan nan nan nan nan nan nan nan nan nan nan nan nan
222 223 199 192 186 nan 208 225 226 214 279 nan 289 291 nan nan 231 150 188 nan nan 256 243 nan 259 301 311 327 333 331 329 318 315 nan nan nan nan nan nan nan nan nan nan nan nan nan nan nan nan nan nan nan nan nan nan nan nan nan nan nan nan nan nan nan nan nan nan nan nan nan nan nan nan nan nan nan nan nan nan nan nan nan nan nan nan nan
236 226 233 205 217 219 211 220 232 221 262 269 nan 299 nan nan 309 80 nan 215 234 nan nan 275 289 310 320 333 336 333 329 323 318 nan nan nan nan nan nan nan nan nan nan nan nan nan nan nan nan nan nan nan nan nan nan nan nan nan nan nan nan nan nan nan nan nan nan nan nan nan nan nan nan nan nan nan nan nan nan nan nan nan nan nan nan nan
228 225 239 215 225 222 nan nan 228 236 231 262 nan nan 311 307 317 360 201 226 212 nan nan 258 293 309 319 339 338 331 329 327 322 nan nan nan nan nan nan nan nan nan nan nan nan nan nan nan nan nan nan nan nan nan nan nan nan nan nan nan nan nan nan nan nan nan nan nan nan nan nan nan nan nan nan nan nan nan nan nan nan nan nan nan nan nan
240 237 246 228 238 232 231 nan nan 250 264 nan 282 295 294 nan 301 230 242 nan nan 220 229 240 277 295 305 332 332 324 320 319 311 nan nan nan nan nan nan nan nan nan nan nan nan nan nan nan nan nan nan nan nan nan nan nan nan nan nan nan nan nan nan nan nan nan nan nan nan nan nan nan nan nan nan nan nan nan nan nan nan nan nan nan nan nan
242 250 261 250 244 243 237 nan nan 262 nan 277 nan nan nan nan nan 259 256 258 249 nan 258 251 291 302 274 310 315 311 311 309 nan nan nan nan nan nan nan nan nan nan nan nan nan nan nan nan nan nan nan nan nan nan nan nan nan nan nan nan nan nan nan nan nan nan nan nan nan nan nan nan nan nan nan nan nan nan nan nan nan nan nan nan nan nan
249 250 256 247 239 254 249 249 nan nan nan 270 283 nan nan nan 283 273 nan 262 268 257 272 270 293 306 289 304 306 308 317 319 nan nan nan nan nan nan nan nan nan nan nan nan nan nan nan nan nan nan nan nan nan nan nan nan nan nan nan nan nan nan nan nan nan nan nan nan nan nan nan nan nan nan nan nan nan nan nan nan nan nan nan nan nan nan
260 265 254 251 nan 252 255 248 256 nan nan nan 298 nan nan 267 252 259 nan 265 255 258 276 nan nan 257 302 308 312 317 326 329 nan nan nan nan nan nan nan nan nan nan nan nan nan nan nan nan nan nan nan nan nan nan nan nan nan nan nan nan nan nan nan nan nan nan nan nan nan nan nan nan nan nan nan nan nan nan nan nan nan nan nan nan nan nan
248 261 nan 257 nan 252 262 258 258 259 nan 247 244 248 270 268 276 274 271 277 282 279 235 225 239 277 305 312 323 330 nan nan nan nan nan nan nan nan nan nan nan nan nan nan nan nan nan nan nan nan nan nan nan nan nan nan nan nan nan nan nan nan nan nan nan nan nan nan nan nan nan nan nan nan nan nan nan nan nan nan nan nan nan nan nan nan
257 255 245 251 nan 251 263 265 nan nan nan 246 256 253 nan nan nan nan 248 nan 266 278 nan 253 257 295 322 328 332 338 341 nan nan nan nan nan nan nan nan nan nan nan nan nan nan nan nan nan nan nan nan nan nan nan nan nan nan nan nan nan nan nan nan nan nan nan nan nan nan nan nan nan nan nan nan nan nan nan nan nan nan nan nan nan nan nan
241 nan nan nan 244 247 nan nan nan nan 245 nan 257 256 nan nan nan 254 251 nan nan 288 nan 250 260 290 312 318 322 331 nan nan nan nan nan nan nan nan nan nan nan nan nan nan nan nan nan nan nan nan nan nan nan nan nan nan nan nan nan nan nan nan nan nan nan nan nan nan nan nan nan nan nan nan nan nan nan nan nan nan nan nan nan nan nan nan
227 248 nan nan nan nan nan nan nan 241 nan 272 261 283 nan 287 291 nan nan nan nan 292 297 270 286 295 300 304 304 nan nan nan nan nan nan nan nan nan nan nan nan nan nan nan nan nan nan nan nan nan nan nan nan nan nan nan nan nan nan nan nan nan nan nan nan nan nan nan nan nan nan nan nan nan nan nan nan nan nan nan nan nan nan nan nan nan
222 229 nan nan nan nan nan nan nan nan nan nan 268 265 299 262 264 253 nan nan 281 296 304 303 316 322 nan nan nan nan nan nan nan nan nan nan nan nan nan nan nan nan nan nan nan nan nan nan nan nan nan nan nan nan nan nan nan nan nan nan nan nan nan nan nan nan nan nan nan nan nan nan nan nan nan nan nan nan nan nan nan nan nan nan nan nan
nan 213 232 nan nan nan nan nan nan nan nan 245 265 279 285 270 nan nan nan nan 282 316 333 329 330 337 nan nan nan nan nan nan nan nan nan nan nan nan nan nan nan nan nan nan nan nan nan nan nan nan nan nan nan nan nan nan nan nan nan nan nan nan nan nan nan nan nan nan nan nan nan nan nan nan nan nan nan nan nan nan nan nan nan nan nan nan
nan nan nan nan nan nan nan nan nan nan nan 260 267 277 nan 272 nan 222 nan nan 261 318 335 343 338 343 nan nan nan nan nan nan nan nan nan nan nan nan nan nan nan nan nan nan nan nan nan nan nan nan nan nan nan nan nan nan nan nan nan nan nan nan nan nan nan nan nan nan nan nan nan nan nan nan nan nan nan nan nan nan nan nan nan nan nan nan
nan nan nan nan nan nan nan nan nan nan 263 267 276 281 nan 263 234 nan nan nan nan 312 343 340 337 nan nan nan nan nan 23 nan nan nan nan nan nan nan nan nan nan nan nan nan nan nan nan nan nan nan nan nan nan nan nan nan nan nan nan nan nan nan nan nan nan nan nan nan nan nan nan nan nan nan nan nan nan nan nan nan nan nan nan nan nan nan
nan nan nan nan nan nan nan nan nan nan 251 265 267 nan nan 263 nan nan 222 223 264 303 323 330 324 326 nan nan nan nan nan nan nan nan nan nan nan nan nan nan nan nan nan nan nan nan nan nan nan nan nan nan nan nan nan nan nan nan nan nan nan nan nan nan nan nan nan nan nan nan nan nan nan nan nan nan nan nan nan nan nan nan nan nan nan nan
nan nan nan nan nan nan nan nan nan nan 255 276 273 nan 232 227 nan 235 245 233 245 286 309 311 317 nan nan nan 313 nan nan nan nan nan nan nan nan nan nan nan nan nan nan nan nan nan nan nan nan nan nan nan nan nan nan nan nan nan nan nan nan nan nan nan nan nan nan nan nan nan nan nan nan nan nan nan nan nan nan nan nan nan nan nan nan nan
nan nan nan nan nan nan nan nan nan nan 265 292 nan nan nan nan 225 240 nan nan 238 277 299 297 306 nan nan 305 nan nan nan nan nan nan nan nan nan nan nan nan nan nan nan nan nan nan nan nan nan nan nan nan nan nan nan nan nan nan nan nan nan nan nan nan nan nan nan nan nan nan nan nan nan nan nan nan nan nan nan nan nan nan nan nan nan nan
nan nan 224 nan nan nan nan nan 245 244 273 295 256 218 248 250 232 235 232 nan 270 272 294 292 303 nan nan nan nan nan nan nan nan nan nan nan nan nan nan nan nan nan nan nan nan nan nan nan nan nan nan nan nan nan nan nan nan nan nan nan nan nan nan nan nan nan nan nan nan nan nan nan nan nan nan nan nan nan nan nan nan nan nan nan nan nan
nan nan nan nan nan 240 221 235 244 245 260 286 249 230 231 251 nan 239 252 nan nan 272 294 293 299 nan nan nan nan nan nan nan nan nan nan nan nan nan nan nan nan nan nan nan nan nan nan nan nan nan nan nan nan nan nan nan nan nan nan nan nan nan nan nan nan nan nan nan nan nan nan nan nan nan nan nan nan nan nan nan nan nan nan nan nan nan
237 nan nan nan 237 nan nan 261 254 248 257 269 262 nan nan 229 243 nan 245 244 nan 266 278 281 nan nan nan nan nan nan nan nan nan nan nan nan nan nan nan nan nan nan nan nan nan nan nan nan nan nan nan nan nan nan nan nan nan nan nan nan nan nan nan nan nan nan nan nan nan nan nan nan nan nan nan nan nan nan nan nan nan nan nan nan nan nan
239 nan nan nan nan nan nan 244 242 242 240 243 247 256 nan nan nan nan 241 242 252 264 269 281 nan nan nan nan nan nan nan nan nan nan nan nan nan nan nan nan nan nan nan nan nan nan nan nan nan nan nan nan nan nan nan nan nan nan nan nan nan nan nan nan nan nan nan nan nan nan nan nan nan nan nan nan nan nan nan nan nan nan nan nan nan nan
233 nan nan nan nan nan nan 242 nan nan nan nan nan 239 245 nan nan nan nan nan 263 nan nan nan nan nan nan nan nan nan nan nan nan nan nan nan nan nan nan nan nan nan nan nan nan nan nan nan nan nan nan nan nan nan nan nan nan nan nan nan nan nan nan nan nan nan nan nan nan nan nan nan nan nan nan nan nan nan nan nan nan nan nan nan nan nan
nan nan 235 nan nan nan nan 237 254 nan nan 253 269 276 270 259 nan nan nan nan nan nan nan nan nan nan nan nan nan nan nan nan nan nan nan nan nan nan nan nan nan nan nan nan nan nan nan nan nan nan nan nan nan nan nan nan nan nan nan nan nan nan nan nan nan nan nan nan nan nan nan nan nan nan nan nan nan nan nan nan nan nan nan nan nan nan
nan nan nan nan nan nan nan 233 245 nan nan 233 246 271 279 nan nan nan nan nan nan nan nan nan nan nan nan nan nan nan nan nan nan nan nan nan nan nan nan nan nan nan nan nan nan nan nan nan nan nan nan nan nan nan nan nan nan nan nan nan nan nan nan nan nan nan nan nan nan nan nan nan nan nan nan nan nan nan nan nan nan nan nan nan nan nan